Roda de Ter - l'Esquerda





Hora UTC 22:15
Temperatura 8.1 ºC
Humitat 92.0 %
Pressió 1027.9 hPa
Pluja 0.0 mm
Velocitat vent 0.0 km/h
Direcció vent NE

Dades diàries 2020-10-29



Hora UTC (hivern +1h; estiu +2h)
Temperatura (ºC) Humitat (%) Pressió (hPa) Velocitat vent (km/h) Precipitació (mm)
Hora UTC Aire Humitat Pressió Vel. Dir. Vel. Max Dir. Intent. màx 5 min.
00:00 6.7 91.0 1025.8 0.0 WNW 0.0 0.0
00:05 6.7 92.0 1025.8 1.6 WNW 3.2 0.0
00:10 6.6 91.0 1025.8 3.2 WNW 3.2 0.0
00:15 6.5 92.0 1025.8 1.6 WNW 3.2 0.0
00:20 6.6 92.0 1025.8 1.6 WNW 3.2 0.0
00:25 6.6 92.0 1025.7 1.6 WNW 3.2 0.0
00:30 6.7 92.0 1025.7 1.6 WNW 3.2 0.0
00:35 6.6 92.0 1025.8 1.6 WNW 3.2 0.0
00:40 6.6 92.0 1026.0 3.2 WNW 3.2 0.0
00:45 6.6 92.0 1026.1 0.0 WNW 3.2 0.0
00:50 6.4 92.0 1026.0 0.0 WNW 3.2 0.0
00:55 6.5 92.0 1026.1 0.0 WNW 1.6 0.0
01:00 6.3 92.0 1026.0 0.0 WNW 1.6 0.0
01:05 6.1 92.0 1026.1 0.0 WNW 0.0 0.0
01:10 6.1 92.0 1026.3 0.0 WNW 0.0 0.0
01:15 5.9 92.0 1026.2 0.0 WNW 1.6 0.0
01:20 5.9 92.0 1026.2 1.6 WNW 1.6 0.0
01:25 6.1 92.0 1026.3 0.0 WNW 1.6 0.0
01:30 5.9 92.0 1026.3 0.0 WNW 0.0 0.0
01:35 6.2 92.0 1026.2 1.6 WNW 3.2 0.0
01:40 6.2 92.0 1026.2 0.0 WNW 3.2 0.0
01:45 6.3 93.0 1025.9 3.2 SW 3.2 0.0
01:50 6.4 93.0 1025.9 1.6 SW 3.2 0.0
01:55 6.4 92.0 1025.9 1.6 SW 4.8 0.0
02:00 6.4 93.0 1026.0 0.0 SW 3.2 0.0
02:05 5.9 92.0 1026.2 0.0 SW 3.2 0.0
02:10 5.8 92.0 1025.9 0.0 SW 3.2 0.0
02:15 6.2 93.0 1025.9 1.6 SW 1.6 0.0
02:20 6.2 93.0 1025.7 0.0 SW 1.6 0.0
02:25 6.2 93.0 1025.7 0.0 SW 3.2 0.0
02:30 5.9 92.0 1025.9 1.6 SW 3.2 0.0
02:35 6.1 93.0 1026.0 1.6 SW 3.2 0.0
02:40 6.2 93.0 1025.9 0.0 SW 3.2 0.0
02:45 6.2 93.0 1026.1 0.0 SW 1.6 0.0
02:50 6.0 93.0 1026.1 0.0 SW 1.6 0.0
02:55 5.8 92.0 1026.1 1.6 SW 1.6 0.0
03:00 5.8 92.0 1026.0 3.2 SW 3.2 0.0
03:05 5.8 93.0 1025.8 1.6 SW 3.2 0.0
03:10 5.8 93.0 1025.8 0.0 SW 3.2 0.0
03:15 5.8 93.0 1025.9 1.6 SW 3.2 0.0
03:20 5.9 93.0 1026.0 0.0 SW 3.2 0.0
03:25 5.8 93.0 1025.9 0.0 SW 1.6 0.0
03:30 5.9 93.0 1025.9 1.6 SW 1.6 0.0
03:35 6.0 93.0 1025.9 0.0 SW 1.6 0.0
03:40 6.1 93.0 1026.1 0.0 SW 3.2 0.0
03:45 5.9 93.0 1026.3 0.0 SW 3.2 0.0
03:50 5.9 93.0 1026.6 0.0 SW 1.6 0.0
04:00 6.2 93.0 1026.7 0.0 SW 1.6 0.0
04:05 6.3 93.0 1026.8 0.0 SW 1.6 0.0
04:10 6.4 93.0 1026.7 0.0 SW 1.6 0.0
04:15 6.6 93.0 1026.7 0.0 SW 1.6 0.0
04:20 6.6 93.0 1026.7 0.0 SW 1.6 0.0
04:25 6.7 93.0 1026.6 1.6 SSW 3.2 0.0
04:30 6.8 93.0 1026.6 0.0 SSW 3.2 0.0
04:35 6.7 93.0 1026.9 1.6 SSW 1.6 0.0
04:40 6.6 93.0 1026.8 0.0 SSW 1.6 0.0
04:45 6.6 93.0 1026.9 0.0 SSW 0.0 0.0
04:50 6.7 93.0 1026.9 0.0 SSW 1.6 0.0
04:55 6.7 93.0 1026.8 0.0 SSW 1.6 0.0
05:00 6.8 93.0 1027.0 0.0 SSW 1.6 0.0
05:05 6.8 93.0 1027.1 1.6 SSW 1.6 0.0
05:10 6.9 93.0 1027.0 0.0 SSW 3.2 0.0
05:15 6.9 93.0 1026.8 0.0 SSW 3.2 0.0
05:20 6.9 93.0 1026.9 0.0 SSW 3.2 0.0
05:25 6.9 93.0 1026.9 0.0 SSW 3.2 0.0
05:30 7.0 93.0 1027.0 1.6 SSW 1.6 0.0
05:35 7.0 93.0 1027.0 0.0 SSW 1.6 0.0
05:40 7.0 93.0 1027.0 0.0 SSW 1.6 0.0
05:45 7.1 93.0 1026.8 0.0 SSW 0.0 0.0
05:50 7.2 93.0 1026.8 0.0 SSW 3.2 0.0
05:55 7.2 93.0 1026.8 0.0 SSW 3.2 0.0
06:00 7.3 93.0 1026.8 0.0 SSW 3.2 0.0
06:05 7.3 93.0 1026.8 0.0 SSW 1.6 0.0
06:10 7.3 93.0 1026.8 0.0 SSW 1.6 0.0
06:15 7.4 93.0 1026.9 0.0 SSW 1.6 0.0
06:20 7.6 93.0 1026.8 0.0 SSW 1.6 0.0
06:25 7.4 93.0 1027.0 1.6 SSW 1.6 0.0
06:30 7.5 93.0 1026.9 0.0 SSW 1.6 0.0
06:35 7.4 93.0 1027.0 1.6 SSW 1.6 0.0
06:40 7.4 93.0 1027.1 0.0 SSW 3.2 0.0
06:45 7.4 93.0 1027.1 0.0 SSW 1.6 0.0
06:50 7.4 93.0 1027.1 0.0 SSW 1.6 0.0
06:55 7.6 93.0 1027.3 0.0 SSW 1.6 0.0
07:00 7.7 93.0 1027.4 1.6 SSW 1.6 0.0
07:05 7.8 93.0 1027.5 0.0 SSW 1.6 0.0
07:05 7.9 93.0 1027.6 0.0 SSW 1.6 0.0
07:15 8.0 93.0 1027.5 1.6 SSW 1.6 0.0
07:20 8.1 93.0 1027.7 0.0 SSW 1.6 0.0
07:25 8.2 93.0 1027.7 0.0 SSW 3.2 0.0
07:30 8.2 93.0 1027.8 0.0 SSW 3.2 0.0
07:35 8.3 93.0 1027.6 0.0 SSW 1.6 0.0
07:40 8.4 93.0 1027.5 0.0 SSW 1.6 0.0
07:45 8.4 93.0 1027.7 0.0 SSW 1.6 0.0
07:50 8.4 93.0 1027.7 0.0 SSW 1.6 0.0
07:55 8.6 93.0 1027.7 0.0 SSW 1.6 0.0
08:00 8.7 93.0 1027.6 0.0 SSW 1.6 0.0
08:00 8.8 93.0 1027.6 1.6 SSW 1.6 0.0
08:05 8.9 93.0 1027.7 1.6 SSW 3.2 0.0
08:10 9.3 93.0 1027.7 0.0 SSW 3.2 0.0
08:15 9.3 92.0 1027.6 0.0 SSW 1.6 0.0
08:20 9.4 91.0 1027.7 0.0 SSW 1.6 0.0
08:25 9.6 91.0 1027.7 0.0 SSW 1.6 0.0
08:30 9.8 90.0 1027.7 1.6 SSW 1.6 0.0
08:35 10.0 89.0 1027.7 1.6 SSW 1.6 0.0
08:40 10.5 89.0 1027.7 0.0 SSW 1.6 0.0
08:45 10.5 86.0 1027.8 0.0 SSW 3.2 0.0
08:50 10.5 87.0 1027.9 1.6 SW 3.2 0.0
08:55 10.7 87.0 1028.1 1.6 NNW 4.8 0.0
09:00 11.1 86.0 1028.2 0.0 NE 4.8 0.0
09:05 10.9 85.0 1028.3 1.6 NE 4.8 0.0
09:10 11.1 85.0 1028.3 0.0 NE 3.2 0.0
09:15 11.3 84.0 1028.5 3.2 NW 4.8 0.0
09:20 11.2 84.0 1028.4 0.0 NW 4.8 0.0
09:25 11.2 84.0 1028.4 0.0 NW 1.6 0.0
09:30 11.4 83.0 1028.4 0.0 NW 1.6 0.0
09:35 11.8 83.0 1028.2 1.6 NW 3.2 0.0
09:40 12.0 83.0 1028.2 0.0 NNW 3.2 0.0
09:45 12.6 82.0 1028.2 1.6 NNW 3.2 0.0
09:50 12.9 81.0 1028.1 1.6 WSW 4.8 0.0
09:55 13.3 78.0 1028.0 0.0 WSW 4.8 0.0
10:00 13.4 79.0 1028.1 1.6 WSW 4.8 0.0
10:05 13.6 79.0 1028.1 1.6 WSW 3.2 0.0
10:10 13.9 80.0 1028.0 1.6 SSW 4.8 0.0
10:15 14.2 78.0 1028.1 0.0 WNW 4.8 0.0
10:20 14.3 78.0 1028.0 3.2 WNW 4.8 0.0
10:25 14.6 76.0 1028.1 4.8 W 4.8 0.0
10:30 15.2 75.0 1028.0 0.0 W 4.8 0.0
10:35 15.3 74.0 1027.9 3.2 W 4.8 0.0
10:45 15.8 72.0 1027.8 1.6 WNW 4.8 0.0
10:45 15.7 74.0 1027.8 4.8 W 6.4 0.0
10:50 15.7 71.0 1027.8 1.6 W 6.4 0.0
11:00 15.7 72.0 1027.7 1.6 W 6.4 0.0
11:05 16.0 71.0 1027.8 3.2 NNE 6.4 0.0
11:10 16.1 72.0 1027.6 0.0 N 4.8 0.0
11:10 16.3 70.0 1027.6 1.6 WNW 4.8 0.0
11:20 16.4 69.0 1027.4 4.8 W 6.4 0.0
11:25 16.7 69.0 1027.4 3.2 WNW 9.7 0.0
11:30 16.9 70.0 1027.3 1.6 NW 9.7 0.0
11:35 16.6 68.0 1027.2 3.2 NNE 4.8 0.0
11:40 16.8 71.0 1027.2 1.6 ESE 4.8 0.0
11:45 17.4 66.0 1027.3 3.2 NNW 8.0 0.0
11:50 17.3 66.0 1027.2 3.2 NNW 8.0 0.0
11:55 17.2 67.0 1027.1 3.2 N 8.0 0.0
12:00 16.9 67.0 1027.0 1.6 WNW 8.0 0.0
12:05 16.9 66.0 1027.0 1.6 N 6.4 0.0
12:10 17.2 67.0 1026.9 1.6 W 6.4 0.0
12:15 17.9 66.0 1026.9 6.4 W 12.9 0.0
12:20 18.1 66.0 1026.8 3.2 NNE 12.9 0.0
12:25 17.7 65.0 1026.9 3.2 WNW 11.3 0.0
12:30 17.7 64.0 1026.7 3.2 N 8.0 0.0
12:35 17.7 64.0 1026.6 1.6 NW 8.0 0.0
12:40 16.9 67.0 1026.6 1.6 WNW 12.9 0.0
12:45 17.4 66.0 1026.4 3.2 WNW 12.9 0.0
12:50 18.0 64.0 1026.4 3.2 WNW 11.3 0.0
12:55 18.1 63.0 1026.5 1.6 WNW 12.9 0.0
13:00 18.3 63.0 1026.3 6.4 W 12.9 0.0
13:05 18.0 63.0 1026.3 6.4 NNW 12.9 0.0
13:10 18.2 61.0 1026.3 3.2 W 12.9 0.0
13:15 18.2 65.0 1026.2 3.2 W 16.1 0.0
13:20 18.3 60.0 1026.1 4.8 W 14.5 0.0
13:25 18.6 62.0 1026.2 6.4 WNW 12.9 0.0
13:30 18.2 62.0 1026.2 1.6 WNW 12.9 0.0
13:35 18.1 61.0 1026.3 6.4 WSW 12.9 0.0
13:40 18.3 61.0 1026.2 0.0 W 9.7 0.0
13:45 18.3 63.0 1026.2 3.2 W 8.0 0.0
13:50 18.6 59.0 1026.0 3.2 WNW 9.7 0.0
13:55 18.6 60.0 1026.0 4.8 WSW 9.7 0.0
14:00 18.3 61.0 1026.0 4.8 NW 8.0 0.0
14:05 18.6 60.0 1026.0 3.2 W 11.3 0.0
14:10 18.3 61.0 1026.1 3.2 W 11.3 0.0
14:15 18.5 63.0 1026.0 4.8 W 9.7 0.0
14:20 18.6 59.0 1025.9 3.2 W 11.3 0.0
14:25 18.4 60.0 1026.0 3.2 WSW 11.3 0.0
14:30 18.8 59.0 1025.9 3.2 WSW 11.3 0.0
14:35 18.4 60.0 1026.0 1.6 WSW 11.3 0.0
14:40 18.4 61.0 1025.9 1.6 NW 11.3 0.0
14:45 18.2 61.0 1026.0 6.4 W 9.7 0.0
14:50 18.3 61.0 1025.9 3.2 WSW 8.0 0.0
14:55 18.2 62.0 1026.0 1.6 SW 8.0 0.0
15:00 18.2 62.0 1026.0 3.2 W 6.4 0.0
15:05 18.3 61.0 1026.0 6.4 W 6.4 0.0
15:10 18.1 61.0 1026.0 0.0 SW 9.7 0.0
15:15 17.9 61.0 1026.1 4.8 SW 6.4 0.0
15:20 18.1 62.0 1026.0 0.0 SW 4.8 0.0
15:25 17.9 62.0 1026.0 0.0 SW 3.2 0.0
15:30 17.8 62.0 1026.1 0.0 SW 3.2 0.0
15:35 17.8 62.0 1026.0 3.2 SW 3.2 0.0
15:40 17.8 63.0 1026.1 1.6 SW 3.2 0.0
15:45 17.6 61.0 1026.0 1.6 SW 1.6 0.0
15:50 17.3 64.0 1026.1 3.2 NW 3.2 0.0
15:55 17.3 64.0 1026.0 1.6 NW 4.8 0.0
15:55 17.2 64.0 1026.1 0.0 NW 4.8 0.0
16:00 17.2 63.0 1026.0 1.6 NW 3.2 0.0
16:05 17.1 64.0 1026.0 0.0 NW 3.2 0.0
16:10 16.9 63.0 1026.0 0.0 NW 1.6 0.0
16:15 16.7 65.0 1026.1 0.0 NW 1.6 0.0
16:20 16.4 67.0 1026.1 0.0 NW 1.6 0.0
16:25 15.9 70.0 1026.1 0.0 NW 1.6 0.0
16:30 15.4 73.0 1026.2 1.6 NW 3.2 0.0
16:35 14.8 74.0 1026.1 3.2 N 4.8 0.0
16:40 14.6 75.0 1026.1 1.6 N 4.8 0.0
16:45 14.3 76.0 1026.2 1.6 N 3.2 0.0
16:50 14.2 77.0 1026.3 1.6 N 1.6 0.0
16:55 13.8 79.0 1026.3 0.0 N 3.2 0.0
17:00 13.6 80.0 1026.4 0.0 N 3.2 0.0
17:05 13.3 81.0 1026.3 0.0 N 3.2 0.0
17:10 13.2 81.0 1026.5 1.6 N 3.2 0.0
17:15 13.1 82.0 1026.4 0.0 N 3.2 0.0
17:20 12.9 82.0 1026.5 3.2 N 3.2 0.0
17:25 12.8 83.0 1026.6 3.2 N 4.8 0.0
17:30 12.6 83.0 1026.6 3.2 N 4.8 0.0
17:35 12.6 83.0 1026.7 1.6 N 4.8 0.0
17:40 12.5 83.0 1026.8 1.6 N 4.8 0.0
17:45 12.3 83.0 1026.7 0.0 N 3.2 0.0
17:50 11.8 84.0 1026.8 1.6 N 3.2 0.0
17:55 11.7 86.0 1026.9 1.6 NNE 3.2 0.0
18:00 11.9 86.0 1026.9 3.2 NNE 4.8 0.0
18:05 12.1 85.0 1027.0 1.6 NE 4.8 0.0
18:10 12.3 85.0 1027.1 0.0 NE 3.2 0.0
18:15 12.2 84.0 1027.1 1.6 NE 3.2 0.0
18:20 11.9 85.0 1027.2 1.6 NE 3.2 0.0
18:25 11.9 85.0 1027.2 1.6 NE 3.2 0.0
18:30 11.7 85.0 1027.1 1.6 NE 3.2 0.0
18:35 11.4 85.0 1027.2 3.2 NE 3.2 0.0
18:40 11.2 86.0 1027.1 3.2 NE 4.8 0.0
18:45 10.9 86.0 1027.2 3.2 NE 4.8 0.0
18:50 10.7 87.0 1027.2 3.2 NE 4.8 0.0
18:55 10.6 88.0 1027.1 0.0 NE 4.8 0.0
19:00 10.4 88.0 1027.1 1.6 NE 3.2 0.0
19:05 10.4 88.0 1027.2 1.6 NE 4.8 0.0
19:10 10.4 89.0 1027.3 0.0 NE 3.2 0.0
19:15 10.6 89.0 1027.3 0.0 NE 3.2 0.0
19:20 10.3 89.0 1027.3 3.2 NE 4.8 0.0
19:25 10.2 89.0 1027.2 1.6 NE 4.8 0.0
19:30 10.2 89.0 1027.3 1.6 NE 4.8 0.0
19:35 10.0 89.0 1027.2 3.2 NE 4.8 0.0
19:40 9.8 89.0 1027.3 1.6 NE 4.8 0.0
19:45 9.7 90.0 1027.2 0.0 NE 4.8 0.0
19:50 9.6 90.0 1027.3 0.0 NE 3.2 0.0
19:55 9.7 90.0 1027.3 0.0 NE 3.2 0.0
20:00 9.6 90.0 1027.3 0.0 NE 3.2 0.0
20:05 9.6 91.0 1027.4 0.0 NE 0.0 0.0
20:10 9.6 91.0 1027.4 0.0 NE 0.0 0.0
20:15 9.6 91.0 1027.3 0.0 NE 1.6 0.0
20:20 9.4 91.0 1027.4 1.6 NE 3.2 0.0
20:25 9.4 91.0 1027.4 1.6 NE 3.2 0.0
20:30 9.4 91.0 1027.5 1.6 NE 3.2 0.0
20:35 9.2 91.0 1027.5 1.6 NE 3.2 0.0
20:40 9.0 91.0 1027.5 0.0 NE 3.2 0.0
20:45 9.1 91.0 1027.6 3.2 NE 3.2 0.0
20:50 8.9 91.0 1027.7 1.6 NE 3.2 0.0
20:55 8.9 91.0 1027.7 1.6 NE 3.2 0.0
21:00 8.7 91.0 1027.7 0.0 NE 3.2 0.0
21:05 8.7 91.0 1027.7 1.6 NE 3.2 0.0
21:10 8.6 91.0 1027.6 0.0 NE 3.2 0.0
21:15 8.8 92.0 1027.7 1.6 NE 1.6 0.0
21:20 8.7 92.0 1027.8 1.6 NE 3.2 0.0
21:25 8.6 91.0 1027.8 1.6 NE 3.2 0.0
21:30 8.4 91.0 1027.8 1.6 NE 3.2 0.0
21:35 8.4 92.0 1027.8 0.0 NE 3.2 0.0
21:40 8.4 92.0 1027.8 1.6 NE 3.2 0.0
21:45 8.2 91.0 1027.8 1.6 NE 1.6 0.0
21:50 8.1 92.0 1027.8 0.0 NE 3.2 0.0
21:55 8.1 92.0 1027.8 1.6 NE 3.2 0.0
22:00 8.1 92.0 1028.0 0.0 NE 1.6 0.0
22:05 8.1 92.0 1027.9 0.0 NE 1.6 0.0
22:10 8.2 92.0 1027.9 1.6 NE 3.2 0.0
22:15 8.1 92.0 1027.9 0.0 NE 3.2 0.0
Màxima 18.8 93.0 1028.5 6.4 W 16.1 0.0
Mínima 5.7 59.0 1025.7
Total 0.0